Regional Weather Roundup
Issued by NWS Grand Forks, ND

Home | Current Version | Previous Version | Text Only | Print | Product List | Glossary Off
Versions: 1 2 3 4 5 6 7 8 9 10 11 12 13 14 15 16 17 18 19 20 21 22 23 24 25 26 27 28 29 30 31 32 33 34 35 36 37 38 39 40 41 42 43 44 45 46 47 48 49 50

000
ASUS43 KFGF 071031
RWRFGF
PRAIRIE TO PINES  WEATHER ROUNDUP
NATIONAL WEATHER SERVICE EASTERN NORTH DAKOTA/GRAND FORKS ND
400 AM CST SUN FEB 07 2016

 **SATELLITE DATA USED TO AUGMENT SKY COVER AT AUTOMATED STATIONS**
 *****  WEATHER ACROSS EASTERN NORTH DAKOTA  *****

CITY           SKY/WX    TMP DP  RH WIND       PRES   REMARKS
GRAND FORKS    LGT SNOW  36  32  85 W20G32    29.50R
GRAND FRKS AFB CLOUDY    36  30  80 W21       29.51R
GRAND FRKS NWS   N/A     32 N/A N/A NW15        N/A  WCI  22
DEVILS LAKE    CLOUDY    35  27  72 W29G37    29.57R WCI  22
FARGO          CLOUDY    37  30  75 W22G30    29.56S
WAHPETON ARPT  CLOUDY    36  28  75 W24       29.62S
$$

 ***** WEATHER ACROSS CENTRAL AND WESTERN NORTH DAKOTA  *****

CITY           SKY/WX    TMP DP  RH WIND       PRES   REMARKS
BISMARCK       CLEAR     38  24  57 W17G28    29.79S
MINOT          FLURRIES  36  25  64 W32G43    29.67F
JAMESTOWN      PTCLDY    36  24  62 W31G41    29.63S
MINOT AFB      CLOUDY    36  28  75 W31G46    29.65F
GARRISON         N/A     34  20  56 W22G32    29.73F WCI  22
WILLISTON      LGT SNOW  32  26  78 NW32G39   29.84R WCI  17
DICKINSON      PTCLDY    32  19  58 W31G44    29.83F WCI  17
HETTINGER      PTCLDY    32  23  69 W26G32    29.94S WCI  18
$$

 *****  OTHER AIRPORT OBSERVATIONS IN OUR AREA  *****

CITY           SKY/WX    TMP DP  RH WIND       PRES   REMARKS
WALHALLA       FAIR      36  36 100 W22G31    29.46R
GRAFTON AIRPOR DRIZZLE   34  34 100 W24G33    29.49S WCI  21
VALLEY CITY AR FLURRIES  36  25  64 W35G45    29.61S
CANDO          FAIR      32  28  86 W29G36    29.57R WCI  18
CAVALIER APRT  PTSUNNY   36  32  87 W21G28    29.46R
GWINNER        FAIR      37  28  70 W26G38    29.64S
SHEYENNE NWR     N/A     38  27  63 NW17      29.95S
ROLLA          FAIR      32  25  74 W22G32    29.54S WCI  19
 ***** THE ABOVE OBSERVATIONS ARE NON NWS ARE NOT QUALITY
       CONTROLLED AND MAY MIS-REPORT RAIN FOR SNOW...
$$

  *****  WEATHER ACROSS NORTHERN MINNESOTA  *****

CITY           SKY/WX    TMP DP  RH WIND       PRES   REMARKS
FLAG ISLAND    MOCLDY    30  28  93 CALM      29.33F
WARROAD        CLOUDY    36  30  80 W10       29.36F
ROSEAU         CLOUDY    36  28  75 W15G22    29.37S
HALLOCK        LGT RAIN  36  34  93 NW12      29.44R
THF RVR FALLS  CLOUDY    34  30  86 W15G21    29.46R WCI  24
BAUDETTE       CLOUDY    36  30  79 SW6       29.36S
WASKISH        LGT RAIN  36  34  93 SW9       29.39S
CROOKSTON      LGT SNOW  34  32  93 NW24G31   29.50R WCI  21
STEPHEN NDAWN    N/A     34  34 100 W14         N/A  WCI  24
GREENBUSH NDAW   N/A     34  30  86 NW15        N/A  WCI  24
$$
  *****  WEATHER ACROSS CENTRAL AND WEST MINNESOTA  *****

CITY           SKY/WX    TMP DP  RH WIND       PRES   REMARKS
FOSSTON        MIX PCPN  30  30 100 W18G25    29.46R WCI  18
BEMIDJI        CLOUDY    33  32  96 W14G22    29.43R WCI  23
PARK RAPIDS    LGT SNOW  34  32  92 W17       29.46F FOG     WCI  23
ELBOW LAKE     CLOUDY    35  30  82 NW17G26   29.62R WCI  24
WADENA         LGT SNOW  32  30  93 W14G22    29.52S WCI  22
DETROIT LAKES  LGT SNOW  34  32  93 W17G26    29.54R WCI  23
MOORHEAD       CLOUDY    36  30  80 W21G28    29.57S
FERGUS FALLS   LGT RAIN  36  32  87 W20G25    29.62R
MORRIS MN      CLOUDY    37  28  70 W28       29.63S
STAPLES        LGT RAIN  34  32  93 W18       29.52S WCI  23
$$
  *****  WEATHER ELSEWHERE ACROSS MINNESOTA  *****

CITY           SKY/WX    TMP DP  RH WIND       PRES   REMARKS
DULUTH         MOCLDY    31  28  89 SW13      29.49F WCI  21
INTRNTL FALLS  CLOUDY    34  31  88 S6        29.38F
ELY            CLOUDY    32  32 100 S7        29.44F
CLOQUET        MOCLDY    30  28  93 S8        29.49F WCI  23
WHEATON        PTCLDY    39  28  65 W21G28    29.67S
BRAINERD       CLOUDY    35  31  85 W15G26    29.51F
HIBBING        CLOUDY    31  29  92 S6        29.44S
ALEXANDRIA     FLURRIES  35  30  82 W22G32    29.59S WCI  23
SAINT CLOUD    CLOUDY    36  32  85 W14       29.59F
MINNEAPOLIS    PTCLDY    31  26  82 SW8       29.64F WCI  23
$$

  *****  WEATHER ACROSS SOUTH DAKOTA  *****

CITY           SKY/WX    TMP DP  RH WIND       PRES   REMARKS
SIOUX FALLS    CLEAR     35  27  72 W18       29.83S WCI  24
BROOKINGS      CLEAR     35  26  69 W28G36    29.76S WCI  22
WATERTOWN      CLEAR     34  24  67 W23G31    29.74R WCI  22
HURON          PTCLDY    36  27  69 W18       29.86S
SISSETON         N/A     38  25  59 NW29G38   29.66R
ABERDEEN       CLEAR     38  23  55 W23G32    29.77R
MITCHELL       PTCLDY    38  28  67 W18       29.91R
PIERRE         MOCLDY    36  25  64 W20       29.93F
MOBRIDGE       PTCLDY    39  27  62 NW22G29   29.84R
RAPID CITY     MOCLDY    37  17  44 NW28G41   30.05R
$$

  *****  SOME WEATHER IN NEARBY STATES *****

CITY           SKY/WX    TMP DP  RH WIND       PRES   REMARKS
GLASGOW MT     PTCLDY    32  20  61 W30G38    30.06R WCI  18
GREAT FALLS MT CLEAR     21  15  78 SW12      30.32R WCI   9
CHEYENNE WY    CLEAR     33  16  49 W21G36    30.12R WCI  21
SCOTTSBLUFF NE CLOUDY    29  20  69 W8        30.16R WCI  21
OMAHA NE       CLOUDY    32  26  78 CALM      29.93S
DES MOINES IA  CLOUDY    36  27  69 W13       29.86F
DAVENPORT IA   CLOUDY    38  28  67 S16G24    29.88F
CHICAGO IL     CLOUDY    37  29  72 S14       29.92F
EAU CLAIRE WI  MOCLDY    33  27  78 S7        29.66F
LA CROSSE WI   CLOUDY    36  29  75 S7        29.73F
$$

  *****  SOME NATIONAL WEATHER *****

CITY           SKY/WX    TMP DP  RH WIND       PRES   REMARKS
LA GUARDIA NY  PTCLDY    36  22  56 S5        30.19F
RALEIGH NC     CLOUDY    38  24  57 NE6       30.13F
ATLANTA GA     PTCLDY    32  19  58 CALM      30.13F
NEW ORLEANS LA CLEAR     41  32  70 N3        30.29R
OKLAHOMA CITY  CLEAR     31  26  82 S10       30.15F WCI  22
ALBUQUERQUE NM CLEAR     34  14  43 N6        30.36S
SALT LAKE CITY MOCLDY    25  20  81 SE6       30.49S WCI  18
LOS ANGELES CA CLEAR     58  29  33 NE3       30.16S
BOISE ID       PTCLDY    29  26  89 CALM      30.51R
SEATTLE WA     PTCLDY    38  34  85 CALM      30.51R
$$

*** WEATHER ACROSS MANITOBA...SASKATCHEWAN AND ONTARIO ***
                ***ONTARIO***

CITY           SKY/WX    TMP DP  RH WIND       PRES   REMARKS
GERALDTON      LGT SNOW   0  -6  78 E15       29.76F DRFTSNOWWCI -20
THUNDER BAY    LGT SNOW  27  27 100 NE10      29.57F WCI  17
SIOUX LOOKOUT  LGT SNOW  16  12  86 E8G20     29.46F WCI   5
TORONTO        PTCLDY    28  23  80 S5        30.09F WCI  23
BIG TROUT LK   CLEAR    -22 -27  76 E8        29.90S WCI -41
PICKLE LAKE    NOT AVBL
DRYDEN         FLURRIES  23  21  93 E8        29.38F WCI  14
KENORA         LGT SNOW  30  28  93 SE7       29.33F WCI  23
$$
                *** MANITOBA***

CITY           SKY/WX    TMP DP  RH WIND       PRES   REMARKS
BRANDON        MOCLDY    32  27  80 W21       29.50R WCI  20
DAUPHIN        LGT SNOW  25  23  93 N14G20    29.53R WCI  13
ISLAND LAKE    FLURRIES  -2  -8  78 E8G17     29.66R WCI -17
PILOT MOUND      N/A     32  30  93 NW21G29     N/A  WCI  20
THE PAS        LGT SNOW   7   1  78 N14       29.72R WCI -10
THOMPSON       LGT SNOW  -9 -15  77 NE7       29.78R WCI -24
WINNIPEG       FLURRIES  27  25  93 NW23      29.41S WCI  12
LYNN LAKE      LGT SNOW  -8 -11  84 N6        29.79R WCI -21
CHURCHILL      MOCLDY   -17 -22  76 SE7       30.13R WCI -33
$$
                ***SASKATCHEWAN***

CITY           SKY/WX    TMP DP  RH WIND       PRES   REMARKS
ESTEVAN        NOT AVBL
KINDERSLEY     PTCLDY    25  19  80 NW15G22   30.07R WCI  12
LLOYDMINSTER   PTCLDY    25  18  74 NW15G21   30.05R WCI  12
PRINCE ALBERT  FLURRIES  18  10  73 NW22G32   29.88R WCI   0
REGINA         CLOUDY    28  21  74 NW39G46   29.79R WCI  11
YORKTON        CLOUDY    28  23  80 NW33G40   29.61R WCI  12
N. BATTLEFORD  MOCLDY    28  21  74 NW22G31   29.99R WCI  15
LA RONGE       LGT SNOW  12   7  79 NW17G23   29.90R DRFTSNOWWCI  -5
SASKATOON      MOCLDY    25  19  80 NW25G35   29.92R WCI   9
SWIFT CURRENT  CLOUDY    28  19  69 NW38G54   29.98R WCI  11
$$
NOTE: THESE ARE AUTOMATED STATIONS WITH LIMITED QUALITY CONTROL
      "FAIR" INDICATES FEW OR NO CLOUDS BELOW 12,000 FEET WITH NO
      SIGNIFICANT WEATHER AND/OR OBSTRUCTIONS TO VISIBILITY.
      SKY/WX - SKY CONDITION AND SIGNIFICANT WEATHER.
      TMP - AIR TEMPERATURE.    DP   - DEWPOINT TEMPERATURE.
      RH  - RELATIVE HUMIDITY.  PRES - PRESSURE.
      HX  - HEAT INDEX.         WCI  - WIND CHILL INDEX.
$



USA.gov is the U.S. government's official web portal to all federal, state and local government web resources and services.